Regional Weather Roundup
Issued by NWS

Home | Current Version | Previous Version | Text Only | Print | Product List | Glossary On
Versions: 1 2 3 4 5 6 7 8 9 10 11 12 13 14 15 16 17 18 19 20 21 22 23 24 25 26 27 28 29 30 31 32 33 34 35 36 37 38 39 40 41 42 43 44 45 46 47 48 49 50
000
ASUS43 KOAX 021910
RWRNE

WEATHER ROUNDUP FOR NEBRASKA
NATIONAL WEATHER SERVICE OMAHA NE
100 PM CST FRI DEC 02 2016

NOTES: SATELLITE DATA IS BEING USED TO AUGMENT CLOUD COVER ABOVE
       12000 FEET.
       "FAIR" INDICATES FEW OR NO CLOUDS BELOW 12,000 FEET WITH NO
       SIGNIFICANT WEATHER AND/OR OBSTRUCTIONS TO VISIBILITY.

  * THESE STATIONS DO NOT REPORT WEATHER SUCH AS RAIN...SNOW OR FOG.

NEZ001>004-019>022-054>056-022000-
NEBRASKA PANHANDLE

CITY           SKY/WX    TMP DP  RH WIND       PRES   REMARKS
SCOTTSBLUFF    SUNNY     39  24  55 W5        30.21F
ALLIANCE       MOSUNNY   41  22  46 VRB5      30.19F
CHADRON        SUNNY     42  22  44 W6        30.20F
KIMBALL        PTSUNNY   36  25  66 CALM      30.20S
SIDNEY         CLOUDY    37  24  59 CALM      30.22F
$$

NEZ057>060-069>072-079>082-022000-
SOUTHWEST NEBRASKA

CITY           SKY/WX    TMP DP  RH WIND       PRES   REMARKS
NORTH PLATTE   SUNNY     40  23  50 CALM      30.24F
IMPERIAL       MOSUNNY   42  24  49 N8        30.23F
LEXINGTON      SUNNY     37  26  62 CALM      30.25F
MCCOOK         CLOUDY    39  23  52 CALM      30.25F
OGALLALA       SUNNY     41  26  55 SW7       30.23F
$$

NEZ005>010-023>029-035>040-094-022000-
NORTH CENTRAL NEBRASKA

CITY           SKY/WX    TMP DP  RH WIND       PRES   REMARKS
VALENTINE      PTSUNNY   39  22  50 NW8       30.23S WCI  33
AINSWORTH      SUNNY     37  26  64 CALM      30.23F
BROKEN BOW     SUNNY     40  25  55 S5        30.24F
O`NEILL        PTSUNNY   34  26  74 NW3       30.26S
ORD            SUNNY     39  23  52 NW5       30.26S
THEDFORD       SUNNY     43  23  44 W3        30.23S
$$

NEZ041-046>049-061>064-073>077-083>087-022000-
SOUTH CENTRAL NEBRASKA

CITY           SKY/WX    TMP DP  RH WIND       PRES   REMARKS
GRAND ISLAND   SUNNY     39  26  59 CALM      30.27F
AURORA         SUNNY     39  26  60 CALM      30.27F
HASTINGS       SUNNY     40  27  59 CALM      30.27F
HEBRON         SUNNY     41  27  57 CALM      30.28S
HOLDREGE       SUNNY     38  25  60 CALM      30.26S
KEARNEY *      SUNNY     37  25  60 CALM      30.26F
YORK           SUNNY     37  27  65 CALM      30.28F
$$

NEZ011>018-030>034-042>045-022000-
NORTHEAST NEBRASKA

CITY           SKY/WX    TMP DP  RH WIND       PRES   REMARKS
NORFOLK        CLOUDY    34  26  72 W8        30.28R WCI  27
ALBION         PTSUNNY   36  27  69 W3        30.28R
BLAIR          CLOUDY    38  30  74 NW3       30.28R
FREMONT        CLOUDY    38  30  72 CALM      30.30R
TEKAMAH        CLOUDY    37  30  75 CALM      30.30R
WAYNE          CLOUDY    36  29  74 W5        30.27R WCI  32
$$

NEZ050>053-065>068-078-088>093-022000-
SOUTHEAST NEBRASKA

CITY           SKY/WX    TMP DP  RH WIND       PRES   REMARKS
LINCOLN        SUNNY     44  29  55 NW3       30.30F
OMAHA EPPLEY   PTSUNNY   40  29  64 CALM      30.30R
BEATRICE       SUNNY     42  28  59 CALM      30.27F
FALLS CITY     SUNNY     42  29  59 NW5       30.28F
NEBRASKA CITY  SUNNY     41  27  57 NW3       30.28F
PLATTSMOUTH    MOSUNNY   41  27  57 NW5       30.29S
$$

NEZ044-045-051>053-067-022000-
OMAHA AREA

CITY           SKY/WX    TMP DP  RH WIND       PRES   REMARKS
OMAHA EPPLEY   PTSUNNY   40  29  64 CALM      30.30R
BLAIR          CLOUDY    38  30  74 NW3       30.28R
FREMONT        CLOUDY    38  30  72 CALM      30.30R
MILLARD        MOSUNNY   41  30  64 CALM      30.30S
OFFUTT AFB     MOSUNNY   42  30  63 NW6       30.29R
PLATTSMOUTH    MOSUNNY   41  27  57 NW5       30.29S
WAHOO          MOCLDY    40  28  62 W3        30.29S
$$




USA.gov is the U.S. government's official web portal to all federal, state and local government web resources and services.